Back to catalog

CZ-4C R/B

AliveLEO
NORAD 40341·ROCKET BODY·🇨🇳 China

Launched Dec 10, 2014 from Jiuquan Satellite Launch Center

Loading…

Next Passes (next 24 hours)

TLE

FreshSource: Space-Track

Epoch: Sep 14, 2026, 14:31 UTC

1 40341U 14080D   26257.60525721 -.00000013  00000-0  40746-4 0  9995
2 40341  63.4263 337.2898 0547445 352.9484   6.4068 13.69896798588070

Track CZ-4C R/B in real time with AllMySat

Download on the App Store